Tiempo cada hora Granada

Hoy, 15 Mayo, Sábado

Tiempo Temperatura Precipitaciones Viento Presión Humedad
00:00 +16°C° 0 mm 1 mps 703 mmHg 41%
01:00 +16°C° 0 mm 1 mps 703 mmHg 40%
02:00 +16°C° 0 mm 1 mps 702 mmHg 40%
03:00 +16°C° 0 mm 1 mps 702 mmHg 40%
04:00 +16°C° 0 mm 1 mps 702 mmHg 41%
05:00 +15°C° 0 mm 0 mps 702 mmHg 41%
06:00 +16°C° 0 mm 0 mps 702 mmHg 42%
07:00 +20°C° 0 mm 1 mps 703 mmHg 37%
08:00 +22°C° 0 mm 1 mps 703 mmHg 33%
09:00 +24°C° 0 mm 1 mps 703 mmHg 28%
10:00 +25°C° 0 mm 1 mps 703 mmHg 27%
11:00 +27°C° 0 mm 2 mps 703 mmHg 25%
12:00 +28°C° 0 mm 2 mps 703 mmHg 23%
13:00 +29°C° 0 mm 3 mps 703 mmHg 23%
14:00 +29°C° 0 mm 3 mps 703 mmHg 23%
15:00 +30°C° 0 mm 3 mps 703 mmHg 23%
16:00 +29°C° 0 mm 3 mps 703 mmHg 25%
17:00 +28°C° 0 mm 3 mps 703 mmHg 28%
18:00 +27°C° 0 mm 3 mps 702 mmHg 31%
19:00 +25°C° 0 mm 2 mps 703 mmHg 33%
20:00 +23°C° 0 mm 2 mps 703 mmHg 35%
21:00 +22°C° 0 mm 1 mps 703 mmHg 37%
22:00 +21°C° 0 mm 1 mps 703 mmHg 36%
23:00 +21°C° 0 mm 1 mps 702 mmHg 36%

Mañana, 16 Mayo, Domingo

Tiempo Temperatura Precipitaciones Viento Presión Humedad
00:00 +20°C° 0 mm 1 mps 702 mmHg 35%
01:00 +20°C° 0 mm 1 mps 702 mmHg 36%
02:00 +19°C° 0 mm 1 mps 702 mmHg 37%
03:00 +19°C° 0 mm 1 mps 701 mmHg 38%
04:00 +19°C° 0 mm 1 mps 701 mmHg 40%
05:00 +19°C° 0 mm 1 mps 702 mmHg 41%
06:00 +20°C° 0 mm 1 mps 702 mmHg 43%
07:00 +22°C° 0 mm 1 mps 702 mmHg 38%
08:00 +24°C° 0 mm 1 mps 702 mmHg 33%
09:00 +26°C° 0 mm 2 mps 703 mmHg 29%
10:00 +28°C° 0 mm 2 mps 703 mmHg 26%
11:00 +29°C° 0 mm 2 mps 703 mmHg 23%
12:00 +31°C° 0 mm 3 mps 703 mmHg 20%
13:00 +31°C° 0 mm 3 mps 702 mmHg 20%
14:00 +31°C° 0 mm 3 mps 702 mmHg 20%
15:00 +33°C° 0 mm 3 mps 702 mmHg 19%
16:00 +31°C° 0 mm 3 mps 702 mmHg 22%
17:00 +30°C° 0 mm 3 mps 701 mmHg 26%
18:00 +29°C° 0 mm 3 mps 701 mmHg 29%
19:00 +27°C° 0 mm 2 mps 702 mmHg 31%
20:00 +25°C° 0 mm 2 mps 702 mmHg 34%
21:00 +23°C° 0 mm 2 mps 702 mmHg 36%
22:00 +23°C° 0 mm 2 mps 701 mmHg 38%
23:00 +21°C° 0 mm 2 mps 701 mmHg 40%

Pasado mañana, 17 Mayo, Lunes

Tiempo Temperatura Precipitaciones Viento Presión Humedad
00:00 +22°C° 0 mm 1 mps 701 mmHg 41%
01:00 +21°C° 0 mm 1 mps 701 mmHg 44%
02:00 +21°C° 0 mm 1 mps 701 mmHg 46%
03:00 +20°C° 0 mm 1 mps 701 mmHg 48%
04:00 +20°C° 0 mm 1 mps 701 mmHg 50%
05:00 +21°C° 0 mm 1 mps 701 mmHg 52%
06:00 +21°C° 0 mm 1 mps 701 mmHg 55%
07:00 +23°C° 0 mm 1 mps 702 mmHg 50%
08:00 +24°C° 0 mm 1 mps 702 mmHg 45%
09:00 +26°C° 0 mm 1 mps 703 mmHg 40%
10:00 +27°C° 0 mm 2 mps 703 mmHg 36%
11:00 +29°C° 0 mm 2 mps 703 mmHg 32%
12:00 +30°C° 0 mm 3 mps 703 mmHg 28%
13:00 +30°C° 0 mm 3 mps 703 mmHg 28%
14:00 +30°C° 0 mm 4 mps 703 mmHg 27%
15:00 +30°C° 0 mm 4 mps 703 mmHg 27%
16:00 +29°C° 0 mm 4 mps 703 mmHg 29%
17:00 +28°C° 0 mm 4 mps 703 mmHg 32%
18:00 +27°C° 0 mm 3 mps 703 mmHg 34%
19:00 +26°C° 0 mm 3 mps 704 mmHg 38%
20:00 +24°C° 0 mm 2 mps 704 mmHg 42%
21:00 +22°C° 0 mm 1 mps 704 mmHg 46%
22:00 +22°C° 0 mm 1 mps 704 mmHg 49%
23:00 +21°C° 0 mm 1 mps 704 mmHg 51%

18 Mayo, Martes

Tiempo Temperatura Precipitaciones Viento Presión Humedad
00:00 +21°C° 0 mm 1 mps 704 mmHg 54%
01:00 +20°C° 0 mm 1 mps 704 mmHg 57%
02:00 +19°C° 0 mm 1 mps 704 mmHg 60%
03:00 +19°C° 0 mm 1 mps 704 mmHg 62%
04:00 +19°C° 0 mm 1 mps 704 mmHg 63%
05:00 +19°C° 0 mm 1 mps 704 mmHg 63%
06:00 +17°C° 0 mm 0 mps 705 mmHg 63%
07:00 +21°C° 0 mm 1 mps 705 mmHg 57%
08:00 +23°C° 0 mm 1 mps 705 mmHg 51%
09:00 +24°C° 0 mm 1 mps 706 mmHg 45%
10:00 +25°C° 0 mm 2 mps 706 mmHg 42%
11:00 +27°C° 0 mm 2 mps 706 mmHg 39%
12:00 +28°C° 0 mm 2 mps 706 mmHg 36%
13:00 +28°C° 0 mm 3 mps 706 mmHg 37%
14:00 +28°C° 0 mm 3 mps 706 mmHg 37%
15:00 +28°C° 0 mm 3 mps 705 mmHg 38%
16:00 +28°C° 0 mm 3 mps 705 mmHg 39%
17:00 +27°C° 0 mm 3 mps 706 mmHg 41%
18:00 +26°C° 0 mm 3 mps 706 mmHg 43%
19:00 +25°C° 0 mm 2 mps 706 mmHg 49%
20:00 +23°C° 0 mm 2 mps 706 mmHg 54%
21:00 +21°C° 0 mm 1 mps 707 mmHg 59%
22:00 +20°C° 0 mm 1 mps 706 mmHg 62%
23:00 +20°C° 0 mm 1 mps 706 mmHg 65%

19 Mayo, Miércoles

Tiempo Temperatura Precipitaciones Viento Presión Humedad
00:00 +19°C° 0 mm 1 mps 706 mmHg 68%
01:00 +18°C° 0 mm 1 mps 706 mmHg 71%
02:00 +18°C° 0 mm 1 mps 705 mmHg 74%
03:00 +16°C° 0 mm 1 mps 705 mmHg 76%
04:00 +18°C° 0 mm 1 mps 706 mmHg 76%
05:00 +18°C° 0 mm 1 mps 706 mmHg 75%
06:00 +18°C° 0 mm 1 mps 706 mmHg 75%
07:00 +20°C° 0 mm 1 mps 706 mmHg 68%
08:00 +22°C° 0 mm 1 mps 707 mmHg 62%
09:00 +24°C° 0 mm 2 mps 707 mmHg 56%
10:00 +25°C° 0 mm 2 mps 707 mmHg 52%
11:00 +26°C° 0 mm 2 mps 707 mmHg 48%
12:00 +28°C° 0 mm 3 mps 707 mmHg 45%
13:00 +28°C° 0 mm 3 mps 706 mmHg 43%
14:00 +29°C° 0 mm 3 mps 706 mmHg 42%
15:00 +29°C° 0 mm 2 mps 706 mmHg 40%
16:00 +28°C° 0 mm 2 mps 706 mmHg 43%
17:00 +28°C° 0 mm 2 mps 705 mmHg 46%
18:00 +27°C° 0 mm 2 mps 705 mmHg 49%
19:00 +25°C° 0 mm 2 mps 706 mmHg 56%
20:00 +23°C° 0 mm 2 mps 706 mmHg 63%
21:00 +21°C° 0 mm 1 mps 706 mmHg 70%
22:00 +21°C° 0 mm 1 mps 706 mmHg 71%
23:00 +20°C° 0 mm 1 mps 706 mmHg 71%

20 Mayo, Jueves

Tiempo Temperatura Precipitaciones Viento Presión Humedad
00:00 +20°C° 0 mm 1 mps 706 mmHg 72%
01:00 +20°C° 0 mm 1 mps 706 mmHg 73%
02:00 +19°C° 0 mm 1 mps 705 mmHg 74%
03:00 +19°C° 0 mm 1 mps 705 mmHg 74%
04:00 +19°C° 0 mm 1 mps 705 mmHg 73%
05:00 +18°C° 0 mm 0 mps 705 mmHg 72%
06:00 +18°C° 0 mm 0 mps 706 mmHg 71%
07:00 +22°C° 0 mm 1 mps 706 mmHg 64%
08:00 +24°C° 0 mm 1 mps 706 mmHg 57%
09:00 +26°C° 0 mm 1 mps 706 mmHg 50%
10:00 +27°C° 0 mm 1 mps 706 mmHg 45%
11:00 +29°C° 0 mm 1 mps 706 mmHg 40%
12:00 +30°C° 0 mm 2 mps 706 mmHg 36%
13:00 +30°C° 0 mm 2 mps 706 mmHg 34%
14:00 +31°C° 0 mm 2 mps 705 mmHg 33%
15:00 +31°C° 0 mm 3 mps 705 mmHg 31%
16:00 +31°C° 0 mm 3 mps 705 mmHg 34%
17:00 +30°C° 0 mm 2 mps 705 mmHg 37%
18:00 +29°C° 0 mm 2 mps 704 mmHg 40%
19:00 +27°C° 0 mm 2 mps 705 mmHg 45%
20:00 +25°C° 0 mm 2 mps 705 mmHg 51%
21:00 +23°C° 0 mm 1 mps 705 mmHg 56%
22:00 +23°C° 0 mm 1 mps 705 mmHg 57%
23:00 +22°C° 0 mm 1 mps 705 mmHg 58%
Mostrar más

Necesitamos Su Consentimiento

Meteoprog y nuestros Proveedores de Servicios pueden almacenar y acceder a sus datos personales como cookies, identificadores de dispositivo u otras tecnologías similares de su dispositivo y procesar dichos datos para personalizar contenido y anuncios, además de ofrecer funciones de redes sociales y analizar el tráfico.

  • Almacenar y/o acceder a información en su dispositivo

    Se puede almacenar o acceder a cookies, identificadores de dispositivo u otra información de su dispositivo para los fines anteriormente indicados.

  • Anuncios y contenido personalizados, medición de anuncios y contenido, percepciones del público, y desarrollo de productos

    Los anuncios y el contenido pueden personalizarse en base a su perfil. Se pueden añadir más datos para personalizar mejor los anuncios y contenidos. Se puede medir el rendimiento de los anuncios y contenidos. Se puede obtener la percepción sobre el público que ha visto los anuncios y contenidos. Dichos datos pueden usarse para desarrollar o mejorar la experiencia del usuario, sistemas y software.

Al hacer clic en ‘Estoy De Acuerdo’ usted permitirá el uso de las cookies, identificadores de dispositivo, balizas web u otras tecnologías similares indicadas. Su configuración puede cambiarse desde el navegador de su dispositivo.

Para ciertos fines, los intereses legítimos pueden ser considerados por encima del consentimiento. Puede leer más sobre ello en nuestra Política de Privacidad y Cookies.